Simultaneous Nadir Overpasses (SNOs) Predictions

Prediction of SNOs between GOES-15 and METOP-A Satellite Orbit:

Table of predicted SNOs for the next 14.0 days since TLE Epoch: 3/13/2021
Index Date Time (GOES-15) GOES-15 Lat,Lon METOP-A Lat,Lon Distance(km) Time Diff (sec)
1 03/13/2021 16:39:34 0.13,-128.44 -0.38,-126.09 266.71 80
2 03/15/2021 05:01:14 -0.14,-128.36 -0.68,-130.72 269.54 80
3 03/16/2021 04:37:54 -0.13,-128.36 0.44,-125.75 298.05 80
4 03/17/2021 16:59:26 0.13,-128.46 0.53,-130.36 215.38 80
5 03/18/2021 16:36:06 0.13,-128.46 -0.54,-125.37 351.73 80
6 03/20/2021 04:57:46 -0.13,-128.37 -0.47,-130.01 185.84 80
7 03/21/2021 04:34:26 -0.12,-128.37 0.60,-125.02 380.90 80
8 03/22/2021 16:55:58 0.13,-128.45 0.36,-129.63 133.81 80
9 03/23/2021 16:32:38 0.12,-128.45 -0.70,-124.65 432.56 80
10 03/25/2021 04:54:17 -0.13,-128.35 -0.36,-129.27 106.19 80
11 03/26/2021 04:30:57 -0.12,-128.34 0.77,-124.30 460.01 80
